SL-19 DEB, 23491

Orbit data source: Space-Track

SL-19 DEB, 23491 is space debris in LEO originally from a launch on Mon, 26 Dec 1994 UTC launched from the Tyuratam Missile And Space Complex (TTMTR). Debris objects in space refer to the collection of defunct objects orbiting the Earth. Examples of debris include non-operational satellites, rocket bodies, and fragments generated from explosions, collisions, or faulty payload assembly.

Loading next visibility...
Identifier
23491, 1994-085P
Orbit
LEO
Country
Flag of CISCIS
Related business
Manufacturer
Unknown
Mission
Spacecraft
Bus & Motor
Unknown
Mass
Unknown
Launch date (UTC)
1994-12-26 (31 years ago)
Launch vehicle
Unknown
Launch site
Tyuratam Missile And Space Complex (TTMTR)
Object type
Payload
Rocket body
Debris
Shape & HBR
Unknown shape, 0.2 m
Radar Cross Section
Medium (>0.1 m² and <1 m²)

Expand to show TLE details & history
Last TLE update: 1 day ago

TLE from 1 day ago
0 SL-19 DEB
1 23491U 94085P   26047.98605812 -.00000616  00000-0 -13620-1 0  9991
2 23491  64.8137 246.4344 0295766 261.9491 256.0893 11.36614116289770
Epoch: 2026-02-16T23:39Z
TLE epoch observation values (Epoch: 2026-02-16T23:39:55.421Z)
Latitude
22.71043°
Longitude
-86.81724°
Altitude
2,045.575 km
Speed
6.855 km/s
True Right ascension
03h 40m 32s
True Declination
22° 36' 25"
Sunlit
Object was in daylight at epoch
Visualization orbit readout
Latitude
Unknown
Longitude
Unknown
Altitude
Unknown
Speed
Unknown
Apparent Right ascension
Unknown
Apparent Declination
Unknown
Sunlit
N/A
Visualization observer readout
Local Sidereal Time
05:29:06
Azimuth
Unknown
Elevation
Unknown
Doppler factor
Unknown
Orbital elements
Apogee altitude
2,223.665 km
Perigee altitude
1,729.458 km
Semi-major axis
8,354.698 km
Eccentricity
0.02958
Inclination
64.8137°
RAAN
246.4344°
Arg. of periapsis
261.9491°
True anomaly
252.83022°
Mean anomaly
256.0893°
Eccentric anomaly
254.45666°
Mean motion
2.84215 °/min
Orbital period
126.66 mins
BSTAR
-0.01362
Loading maneuver chart data...
Computing Atmospheric mass density...
Loading historical data...
Loading historical data...
Loading historical data...
Loading historical data...
Loading historical data...
Loading historical data...
Loading historical data...

Documentation

Showing up to 5 results
|